| time (UTC) | temp F | wind direction | speed MPH | gust MPH | rain 1hr in | rain 24hr in | rain mn in | humidity % | barometer mb |
| 20260507183646 | 76 | 346 | 3.0 | 9.0 | 0.00 | 0.00 | 0.00 | 54 | 1017.6 |
| 20260507183631 | 77 | 340 | 2.0 | 9.0 | 0.00 | 0.00 | 0.00 | 55 | 1017.6 |
| 20260507182644 | 76 | 93 | 2.0 | 6.0 | 0.00 | 0.00 | 0.00 | 55 | 1017.7 |
| 20260507182404 | 75 | 85 | 3.0 | 7.0 | 0.00 | 0.00 | 0.00 | 56 | 1017.7 |
| 20260507181646 | 75 | 334 | 3.0 | 7.0 | 0.00 | 0.00 | 0.00 | 56 | 1017.7 |
| 20260507181144 | 75 | 5 | 3.0 | 8.0 | 0.00 | 0.00 | 0.00 | 56 | 1017.7 |
| 20260507180921 | 75 | 74 | 3.0 | 8.0 | 0.00 | 0.00 | 0.00 | 57 | 1017.7 |
| 20260507180140 | 74 | 69 | 2.0 | 8.0 | 0.00 | 0.00 | 0.00 | 58 | 1017.8 |
| 20260507175904 | 73 | 342 | 3.0 | 8.0 | 0.00 | 0.00 | 0.00 | 59 | 1017.8 |
| 20260507175141 | 73 | 5 | 3.0 | 8.0 | 0.00 | 0.00 | 0.00 | 60 | 1017.8 |
| 20260507174639 | 72 | 80 | 2.0 | 8.0 | 0.00 | 0.00 | 0.00 | 61 | 1017.8 |
| 20260507174139 | 72 | 313 | 2.0 | 8.0 | 0.00 | 0.00 | 0.00 | 60 | 1018.0 |
| 20260507173641 | 71 | 5 | 3.0 | 8.0 | 0.00 | 0.00 | 0.00 | 61 | 1017.9 |
| 20260507173615 | 72 | 84 | 2.0 | 5.0 | 0.00 | 0.00 | 0.00 | 61 | 1017.9 |
| 20260507172636 | 71 | 315 | 2.0 | 4.0 | 0.00 | 0.00 | 0.00 | 63 | 1017.8 |
| 20260507172134 | 70 | 331 | 3.0 | 8.0 | 0.00 | 0.00 | 0.00 | 63 | 1017.8 |
| 20260507171634 | 70 | 66 | 4.0 | 8.0 | 0.00 | 0.00 | 0.00 | 63 | 1017.9 |
| 20260507171134 | 70 | 9 | 3.0 | 7.0 | 0.00 | 0.00 | 0.00 | 63 | 1017.8 |
| 20260507170633 | 69 | 49 | 2.0 | 7.0 | 0.00 | 0.00 | 0.00 | 65 | 1017.9 |
| 20260507170130 | 70 | 80 | 2.0 | 8.0 | 0.00 | 0.00 | 0.00 | 64 | 1018.0 |
| 20260507165857 | 69 | 63 | 2.0 | 8.0 | 0.00 | 0.00 | 0.00 | 65 | 1018.0 |
| 20260507165131 | 70 | 146 | 1.0 | 6.0 | 0.00 | 0.00 | 0.00 | 65 | 1018.0 |
| 20260507164628 | 69 | 148 | 2.0 | 6.0 | 0.00 | 0.00 | 0.00 | 65 | 1018.1 |
| 20260507164128 | 69 | 120 | 2.0 | 6.0 | 0.00 | 0.00 | 0.00 | 66 | 1018.0 |
| 20260507163850 | 68 | 70 | 2.0 | 6.0 | 0.00 | 0.00 | 0.00 | 66 | 1018.1 |
| 20260507163124 | 67 | 128 | 1.0 | 5.0 | 0.00 | 0.00 | 0.00 | 67 | 1018.0 |
| 20260507162624 | 67 | 147 | 1.0 | 5.0 | 0.00 | 0.00 | 0.00 | 69 | 1018.0 |
| 20260507162345 | 64 | 207 | 1.0 | 3.0 | 0.00 | 0.00 | 0.00 | 75 | 1018.1 |
| 20260507161622 | 63 | 208 | 1.0 | 3.0 | 0.00 | 0.00 | 0.00 | 76 | 1018.1 |
| 20260507161348 | 62 | 208 | 1.0 | 3.0 | 0.00 | 0.00 | 0.00 | 77 | 1018.0 |
| 20260507160621 | 62 | 198 | 1.0 | 4.0 | 0.00 | 0.00 | 0.00 | 78 | 1018.1 |
| 20260507160120 | 61 | 198 | 1.0 | 4.0 | 0.00 | 0.00 | 0.00 | 79 | 1018.1 |
| 20260507155612 | 61 | 210 | 1.0 | 2.0 | 0.00 | 0.00 | 0.00 | 80 | 1018.1 |
| 20260507155110 | 60 | 211 | 1.0 | 2.0 | 0.00 | 0.00 | 0.00 | 81 | 1018.1 |
| 20260507154824 | 60 | 210 | 1.0 | 3.0 | 0.00 | 0.00 | 0.00 | 82 | 1018.1 |
| 20260507154104 | 59 | 213 | 1.0 | 3.0 | 0.00 | 0.00 | 0.00 | 84 | 1018.2 |
| 20260507153604 | 59 | 213 | 1.0 | 3.0 | 0.00 | 0.00 | 0.00 | 85 | 1018.2 |
| 20260507153327 | 58 | 213 | 1.0 | 4.0 | 0.00 | 0.00 | 0.00 | 85 | 1018.2 |
| 20260507152603 | 58 | 213 | 1.0 | 4.0 | 0.00 | 0.00 | 0.00 | 86 | 1018.2 |
| 20260507152101 | 57 | 248 | 1.0 | 2.0 | 0.00 | 0.00 | 0.00 | 86 | 1018.2 |
| 20260507151600 | 57 | 248 | 1.0 | 3.0 | 0.00 | 0.00 | 0.00 | 86 | 1018.3 |
| 20260507151059 | 57 | 249 | 0.0 | 3.0 | 0.00 | 0.00 | 0.00 | 86 | 1018.4 |
| 20260507150557 | 56 | 250 | 0.0 | 1.0 | 0.00 | 0.00 | 0.00 | 86 | 1018.3 |
| 20260507150055 | 56 | 250 | 1.0 | 2.0 | 0.00 | 0.00 | 0.00 | 86 | 1018.3 |
| 20260507145553 | 56 | 250 | 0.0 | 2.0 | 0.00 | 0.00 | 0.00 | 86 | 1018.4 |
| 20260507145050 | 56 | 250 | 0.0 | 1.0 | 0.00 | 0.00 | 0.00 | 86 | 1018.3 |
| 20260507144550 | 55 | 250 | 0.0 | 1.0 | 0.00 | 0.00 | 0.00 | 86 | 1018.3 |
| 20260507144050 | 55 | 250 | 0.0 | 2.0 | 0.00 | 0.00 | 0.00 | 86 | 1018.2 |
| 20260507143552 | 55 | 250 | 0.0 | 2.0 | 0.00 | 0.00 | 0.00 | 86 | 1018.2 |
| 20260507143533 | 55 | 250 | 1.0 | 2.0 | 0.00 | 0.00 | 0.00 | 86 | 1018.2 |
| 20260507142549 | 55 | 250 | 1.0 | 2.0 | 0.00 | 0.00 | 0.00 | 86 | 1018.2 |
| 20260507142048 | 55 | 252 | 0.0 | 2.0 | 0.00 | 0.00 | 0.00 | 86 | 1018.1 |
| 20260507141548 | 55 | 252 | 0.0 | 2.0 | 0.00 | 0.00 | 0.00 | 86 | 1018.1 |
| 20260507141048 | 54 | 252 | 1.0 | 2.0 | 0.00 | 0.00 | 0.00 | 85 | 1018.0 |
| 20260507140547 | 54 | 252 | 0.0 | 2.0 | 0.00 | 0.00 | 0.00 | 85 | 1018.0 |
| 20260507140047 | 54 | 253 | 0.0 | 2.0 | 0.00 | 0.00 | 0.00 | 85 | 1017.9 |
| 20260507135546 | 54 | 253 | 0.0 | 2.0 | 0.00 | 0.00 | 0.00 | 84 | 1018.0 |
| 20260507135048 | 54 | 254 | 0.0 | 2.0 | 0.00 | 0.00 | 0.00 | 84 | 1018.0 |
| 20260507134545 | 54 | 253 | 0.0 | 1.0 | 0.00 | 0.00 | 0.00 | 84 | 1017.9 |
| 20260507134045 | 54 | 253 | 0.0 | 1.0 | 0.00 | 0.00 | 0.00 | 83 | 1017.8 |
| 20260507133544 | 54 | 253 | 0.0 | 1.0 | 0.00 | 0.00 | 0.00 | 83 | 1017.7 |
| 20260507133044 | 54 | 253 | 0.0 | 1.0 | 0.00 | 0.00 | 0.00 | 83 | 1017.7 |
| 20260507132540 | 54 | 253 | 0.0 | 2.0 | 0.00 | 0.00 | 0.00 | 83 | 1017.6 |
| 20260507132041 | 54 | 253 | 0.0 | 2.0 | 0.00 | 0.00 | 0.00 | 83 | 1017.6 |
| 20260507131759 | 55 | 253 | 0.0 | 1.0 | 0.00 | 0.00 | 0.00 | 83 | 1017.5 |
| 20260507131036 | 55 | 253 | 0.0 | 1.0 | 0.00 | 0.00 | 0.00 | 83 | 1017.5 |
| 20260507130534 | 55 | 253 | 0.0 | 1.0 | 0.00 | 0.00 | 0.00 | 83 | 1017.4 |
| 20260507130034 | 55 | 253 | 0.0 | 1.0 | 0.00 | 0.00 | 0.00 | 83 | 1017.4 |
| 20260507125534 | 55 | 253 | 1.0 | 2.0 | 0.00 | 0.00 | 0.00 | 83 | 1017.4 |
| 20260507125253 | 55 | 254 | 1.0 | 2.0 | 0.00 | 0.00 | 0.00 | 83 | 1017.4 |
| 20260507124531 | 55 | 253 | 0.0 | 2.0 | 0.00 | 0.00 | 0.00 | 83 | 1017.4 |
| 20260507124239 | 55 | 253 | 1.0 | 3.0 | 0.00 | 0.00 | 0.00 | 83 | 1017.4 |
| 20260507123518 | 55 | 254 | 1.0 | 3.0 | 0.00 | 0.00 | 0.00 | 83 | 1017.4 |
| 20260507123239 | 55 | 253 | 1.0 | 3.0 | 0.00 | 0.00 | 0.00 | 82 | 1017.4 |
| 20260507122515 | 55 | 253 | 1.0 | 3.0 | 0.00 | 0.00 | 0.00 | 82 | 1017.4 |
| 20260507122011 | 55 | 242 | 1.0 | 3.0 | 0.00 | 0.00 | 0.00 | 82 | 1017.4 |
| 20260507121509 | 55 | 241 | 1.0 | 3.0 | 0.00 | 0.00 | 0.00 | 82 | 1017.4 |
| 20260507121008 | 55 | 232 | 1.0 | 3.0 | 0.00 | 0.00 | 0.00 | 81 | 1017.4 |
| 20260507120506 | 55 | 232 | 0.0 | 2.0 | 0.00 | 0.00 | 0.00 | 81 | 1017.3 |
| 20260507120008 | 55 | 201 | 0.0 | 0.0 | 0.00 | 0.00 | 0.00 | 81 | 1017.3 |
| 20260507115504 | 55 | 200 | 0.0 | 0.0 | 0.00 | 0.00 | 0.00 | 81 | 1017.3 |
| 20260507115002 | 56 | 200 | 0.0 | 0.0 | 0.00 | 0.00 | 0.00 | 81 | 1017.3 |
| 20260507114721 | 56 | 200 | 0.0 | 0.0 | 0.00 | 0.00 | 0.00 | 81 | 1017.3 |
| 20260507114002 | 56 | 200 | 0.0 | 0.0 | 0.00 | 0.00 | 0.00 | 81 | 1017.3 |
| 20260507113503 | 56 | 200 | 0.0 | 0.0 | 0.00 | 0.00 | 0.00 | 81 | 1017.3 |
| 20260507112955 | 56 | 200 | 0.0 | 0.0 | 0.00 | 0.00 | 0.00 | 81 | 1017.2 |
| 20260507112455 | 56 | 200 | 0.0 | 0.0 | 0.00 | 0.00 | 0.00 | 80 | 1017.2 |
| 20260507111948 | 56 | 200 | 0.0 | 0.0 | 0.00 | 0.00 | 0.00 | 80 | 1017.2 |
| 20260507111447 | 56 | 200 | 0.0 | 0.0 | 0.00 | 0.00 | 0.00 | 80 | 1017.1 |
| 20260507111203 | 56 | 200 | 0.0 | 0.0 | 0.00 | 0.00 | 0.00 | 80 | 1017.2 |
| 20260507110442 | 57 | 200 | 0.0 | 0.0 | 0.00 | 0.00 | 0.00 | 80 | 1017.2 |
| 20260507105940 | 57 | 200 | 0.0 | 0.0 | 0.00 | 0.00 | 0.00 | 80 | 1017.2 |
| 20260507105440 | 57 | 200 | 0.0 | 0.0 | 0.00 | 0.00 | 0.00 | 80 | 1017.2 |
| 20260507104941 | 57 | 200 | 0.0 | 0.0 | 0.00 | 0.00 | 0.00 | 80 | 1017.2 |
| 20260507104438 | 57 | 200 | 0.0 | 0.0 | 0.00 | 0.00 | 0.00 | 80 | 1017.2 |
| 20260507103936 | 57 | 200 | 0.0 | 0.0 | 0.00 | 0.00 | 0.00 | 80 | 1017.2 |
| 20260507103434 | 57 | 200 | 0.0 | 0.0 | 0.00 | 0.00 | 0.00 | 80 | 1017.3 |
| 20260507102933 | 57 | 200 | 0.0 | 0.0 | 0.00 | 0.00 | 0.00 | 80 | 1017.4 |
| 20260507102434 | 58 | 200 | 0.0 | 1.0 | 0.00 | 0.00 | 0.00 | 80 | 1017.3 |
| 20260507101935 | 58 | 200 | 0.0 | 2.0 | 0.00 | 0.00 | 0.00 | 80 | 1017.3 |
| 20260507101432 | 58 | 200 | 0.0 | 2.0 | 0.00 | 0.00 | 0.00 | 80 | 1017.3 |
| 20260507100932 | 58 | 200 | 0.0 | 1.0 | 0.00 | 0.00 | 0.00 | 80 | 1017.3 |
| 20260507100431 | 58 | 200 | 0.0 | 1.0 | 0.00 | 0.00 | 0.00 | 79 | 1017.3 |
| 20260507095930 | 58 | 200 | 0.0 | 1.0 | 0.00 | 0.00 | 0.00 | 79 | 1017.3 |
| 20260507095430 | 58 | 200 | 0.0 | 1.0 | 0.00 | 0.00 | 0.00 | 79 | 1017.3 |
| 20260507094929 | 58 | 200 | 0.0 | 1.0 | 0.00 | 0.00 | 0.00 | 79 | 1017.3 |
| 20260507094429 | 58 | 200 | 0.0 | 2.0 | 0.00 | 0.00 | 0.00 | 78 | 1017.3 |
| 20260507093927 | 58 | 200 | 1.0 | 2.0 | 0.00 | 0.00 | 0.00 | 78 | 1017.4 |
| 20260507093424 | 58 | 200 | 1.0 | 3.0 | 0.00 | 0.00 | 0.00 | 78 | 1017.3 |
| 20260507093142 | 58 | 201 | 1.0 | 3.0 | 0.00 | 0.00 | 0.00 | 78 | 1017.3 |
| 20260507092424 | 58 | 201 | 0.0 | 4.0 | 0.00 | 0.00 | 0.00 | 78 | 1017.4 |
| 20260507091920 | 59 | 201 | 1.0 | 4.0 | 0.00 | 0.00 | 0.00 | 77 | 1017.3 |
| 20260507091636 | 59 | 201 | 1.0 | 5.0 | 0.00 | 0.00 | 0.00 | 77 | 1017.3 |
| 20260507090917 | 59 | 201 | 2.0 | 5.0 | 0.00 | 0.00 | 0.00 | 77 | 1017.3 |
| 20260507090411 | 59 | 207 | 2.0 | 5.0 | 0.00 | 0.00 | 0.00 | 77 | 1017.3 |
| 20260507085912 | 59 | 225 | 2.0 | 4.0 | 0.00 | 0.00 | 0.00 | 77 | 1017.3 |
| 20260507085635 | 59 | 233 | 2.0 | 3.0 | 0.00 | 0.00 | 0.00 | 76 | 1017.2 |
| 20260507084909 | 59 | 236 | 1.0 | 3.0 | 0.00 | 0.00 | 0.00 | 76 | 1017.2 |
| 20260507084409 | 59 | 238 | 1.0 | 3.0 | 0.00 | 0.00 | 0.00 | 75 | 1017.3 |
| 20260507083908 | 60 | 239 | 1.0 | 2.0 | 0.00 | 0.00 | 0.00 | 75 | 1017.3 |
| 20260507083407 | 60 | 240 | 0.0 | 2.0 | 0.00 | 0.00 | 0.00 | 74 | 1017.3 |
| 20260507082909 | 60 | 240 | 0.0 | 2.0 | 0.00 | 0.00 | 0.00 | 74 | 1017.3 |
| 20260507082407 | 60 | 240 | 0.0 | 1.0 | 0.00 | 0.00 | 0.00 | 74 | 1017.3 |
| 20260507081904 | 60 | 240 | 0.0 | 1.0 | 0.00 | 0.00 | 0.00 | 74 | 1017.3 |
| 20260507081403 | 61 | 240 | 0.0 | 2.0 | 0.00 | 0.00 | 0.00 | 74 | 1017.3 |
| 20260507080859 | 61 | 240 | 0.0 | 2.0 | 0.00 | 0.00 | 0.00 | 74 | 1017.4 |
| 20260507080356 | 61 | 240 | 0.0 | 2.0 | 0.00 | 0.00 | 0.00 | 74 | 1017.3 |
| 20260507075854 | 61 | 240 | 0.0 | 2.0 | 0.00 | 0.00 | 0.00 | 74 | 1017.3 |
| 20260507075626 | 61 | 240 | 1.0 | 2.0 | 0.00 | 0.00 | 0.00 | 73 | 1017.3 |
| 20260507074854 | 61 | 240 | 1.0 | 3.0 | 0.00 | 0.00 | 0.00 | 73 | 1017.3 |
| 20260507074352 | 62 | 241 | 0.0 | 3.0 | 0.00 | 0.00 | 0.00 | 73 | 1017.3 |
| 20260507073849 | 62 | 241 | 1.0 | 3.0 | 0.00 | 0.00 | 0.00 | 73 | 1017.2 |
| 20260507073344 | 62 | 241 | 1.0 | 3.0 | 0.00 | 0.00 | 0.00 | 73 | 1017.3 |
| 20260507072842 | 62 | 242 | 1.0 | 3.0 | 0.00 | 0.00 | 0.00 | 72 | 1017.3 |
| 20260507072604 | 62 | 244 | 1.0 | 3.0 | 0.00 | 0.00 | 0.00 | 72 | 1017.3 |
| 20260507071841 | 62 | 246 | 0.0 | 2.0 | 0.00 | 0.00 | 0.00 | 72 | 1017.3 |
| 20260507071340 | 62 | 247 | 0.0 | 2.0 | 0.00 | 0.00 | 0.00 | 72 | 1017.2 |
| 20260507070840 | 63 | 247 | 0.0 | 2.0 | 0.00 | 0.00 | 0.00 | 71 | 1017.2 |
| 20260507070559 | 63 | 248 | 1.0 | 2.0 | 0.00 | 0.00 | 0.00 | 71 | 1017.2 |
| 20260507065839 | 63 | 248 | 1.0 | 3.0 | 0.00 | 0.00 | 0.00 | 71 | 1017.2 |
| 20260507065340 | 63 | 248 | 1.0 | 3.0 | 0.00 | 0.00 | 0.00 | 71 | 1017.2 |
| 20260507064838 | 63 | 215 | 1.0 | 3.0 | 0.00 | 0.00 | 0.00 | 71 | 1017.2 |
| 20260507064338 | 63 | 215 | 1.0 | 3.0 | 0.00 | 0.00 | 0.00 | 71 | 1017.1 |
| 20260507063832 | 63 | 211 | 1.0 | 3.0 | 0.00 | 0.00 | 0.00 | 70 | 1017.1 |
| 20260507063331 | 64 | 209 | 0.0 | 2.0 | 0.00 | 0.00 | 0.00 | 70 | 1017.1 |
| 20260507063038 | 64 | 209 | 1.0 | 4.0 | 0.00 | 0.00 | 0.00 | 70 | 1017.0 |
| 20260507062919 | 64 | 209 | 0.0 | 4.0 | 0.00 | 0.00 | 0.00 | 70 | 1017.0 |
| 20260507061830 | 64 | 209 | 2.0 | 4.0 | 0.00 | 0.00 | 0.00 | 70 | 1017.0 |
| 20260507061330 | 64 | 209 | 3.0 | 6.0 | 0.00 | 0.00 | 0.00 | 70 | 1017.0 |
| 20260507060828 | 64 | 260 | 3.0 | 7.0 | 0.00 | 0.00 | 0.00 | 70 | 1017.1 |
| 20260507060325 | 64 | 271 | 3.0 | 7.0 | 0.00 | 0.00 | 0.00 | 70 | 1017.0 |
| 20260507055826 | 64 | 270 | 3.0 | 7.0 | 0.00 | 0.00 | 0.00 | 70 | 1017.1 |
| 20260507055550 | 64 | 267 | 4.0 | 7.0 | 0.00 | 0.00 | 0.00 | 70 | 1017.1 |
| 20260507054825 | 64 | 253 | 4.0 | 9.0 | 0.00 | 0.00 | 0.00 | 71 | 1017.2 |
| 20260507054323 | 64 | 279 | 4.0 | 9.0 | 0.00 | 0.00 | 0.00 | 71 | 1017.2 |
| 20260507053824 | 64 | 273 | 2.0 | 6.0 | 0.00 | 0.00 | 0.00 | 70 | 1017.3 |
| 20260507053325 | 64 | 269 | 2.0 | 8.0 | 0.00 | 0.00 | 0.00 | 70 | 1017.3 |
| 20260507053050 | 64 | 267 | 2.0 | 8.0 | 0.00 | 0.00 | 0.00 | 70 | 1017.4 |
| 20260507052323 | 64 | 268 | 4.0 | 9.0 | 0.00 | 0.00 | 0.00 | 70 | 1017.4 |
| 20260507051821 | 64 | 262 | 5.0 | 9.0 | 0.00 | 0.00 | 0.00 | 70 | 1017.4 |
| 20260507051539 | 64 | 273 | 1.0 | 6.0 | 0.00 | 0.00 | 0.00 | 72 | 1017.4 |
| 20260507051421 | 64 | 278 | 3.0 | 8.0 | 0.00 | 0.00 | 0.00 | 71 | 1017.3 |
| 20260507050316 | 64 | 211 | 0.0 | 2.0 | 0.00 | 0.00 | 0.00 | 72 | 1017.5 |
| 20260507050032 | 64 | 211 | 1.0 | 2.0 | 0.00 | 0.00 | 0.00 | 72 | 1017.5 |
| 20260507045313 | 64 | 211 | 1.0 | 3.0 | 0.00 | 0.00 | 0.00 | 71 | 1017.5 |
| 20260507045032 | 65 | 211 | 2.0 | 4.0 | 0.00 | 0.00 | 0.00 | 71 | 1017.3 |
| 20260507044310 | 65 | 211 | 2.0 | 4.0 | 0.00 | 0.00 | 0.00 | 71 | 1017.5 |
| 20260507043808 | 65 | 205 | 1.0 | 3.0 | 0.00 | 0.00 | 0.00 | 71 | 1017.5 |
| 20260507043526 | 65 | 200 | 0.0 | 2.0 | 0.00 | 0.00 | 0.00 | 70 | 1017.4 |
| 20260507042806 | 66 | 200 | 1.0 | 3.0 | 0.00 | 0.00 | 0.00 | 69 | 1017.4 |
| 20260507042529 | 66 | 200 | 1.0 | 3.0 | 0.00 | 0.00 | 0.00 | 69 | 1017.3 |
| 20260507041802 | 67 | 200 | 2.0 | 4.0 | 0.00 | 0.00 | 0.00 | 67 | 1017.2 |
| 20260507041300 | 67 | 201 | 2.0 | 4.0 | 0.00 | 0.00 | 0.00 | 67 | 1017.1 |
| 20260507040759 | 67 | 225 | 2.0 | 4.0 | 0.00 | 0.00 | 0.00 | 66 | 1017.2 |
| 20260507040519 | 67 | 270 | 1.0 | 3.0 | 0.00 | 0.00 | 0.00 | 66 | 1017.1 |
| 20260507035758 | 68 | 298 | 1.0 | 3.0 | 0.00 | 0.00 | 0.00 | 66 | 1017.1 |
| 20260507035256 | 68 | 299 | 1.0 | 3.0 | 0.00 | 0.00 | 0.00 | 66 | 1017.0 |
| 20260507034756 | 68 | 300 | 1.0 | 3.0 | 0.00 | 0.00 | 0.00 | 66 | 1017.0 |
| 20260507034252 | 68 | 310 | 1.0 | 3.0 | 0.00 | 0.00 | 0.00 | 66 | 1017.0 |
| 20260507033750 | 68 | 311 | 1.0 | 3.0 | 0.00 | 0.00 | 0.00 | 65 | 1017.0 |
| 20260507033249 | 69 | 311 | 2.0 | 5.0 | 0.00 | 0.00 | 0.00 | 65 | 1016.9 |
| 20260507032746 | 69 | 311 | 3.0 | 6.0 | 0.00 | 0.00 | 0.00 | 64 | 1016.7 |
| 20260507032246 | 69 | 296 | 3.0 | 6.0 | 0.00 | 0.00 | 0.00 | 63 | 1016.7 |
| 20260507031746 | 69 | 316 | 3.0 | 10.0 | 0.00 | 0.00 | 0.00 | 63 | 1016.6 |
| 20260507031241 | 70 | 350 | 5.0 | 10.0 | 0.00 | 0.00 | 0.00 | 62 | 1016.6 |
| 20260507030742 | 70 | 302 | 5.0 | 11.0 | 0.00 | 0.00 | 0.00 | 62 | 1016.5 |
| 20260507030239 | 71 | 313 | 5.0 | 11.0 | 0.00 | 0.00 | 0.00 | 61 | 1016.5 |
| 20260507025739 | 71 | 325 | 6.0 | 11.0 | 0.00 | 0.00 | 0.00 | 61 | 1016.5 |
| 20260507025238 | 71 | 300 | 6.0 | 11.0 | 0.00 | 0.00 | 0.00 | 61 | 1016.4 |
| 20260507024738 | 72 | 306 | 5.0 | 10.0 | 0.00 | 0.00 | 0.00 | 60 | 1016.3 |
| 20260507024236 | 72 | 313 | 6.0 | 13.0 | 0.00 | 0.00 | 0.00 | 60 | 1016.3 |
| 20260507023736 | 72 | 304 | 6.0 | 13.0 | 0.00 | 0.00 | 0.00 | 60 | 1016.3 |
| 20260507023236 | 73 | 299 | 5.0 | 11.0 | 0.00 | 0.00 | 0.00 | 60 | 1016.2 |
| 20260507022735 | 73 | 310 | 6.0 | 11.0 | 0.00 | 0.00 | 0.00 | 59 | 1016.1 |
| 20260507022236 | 74 | 317 | 6.0 | 12.0 | 0.00 | 0.00 | 0.00 | 59 | 1016.1 |
| 20260507021736 | 74 | 313 | 6.0 | 12.0 | 0.00 | 0.00 | 0.00 | 58 | 1016.0 |
| 20260507021235 | 74 | 338 | 6.0 | 12.0 | 0.00 | 0.00 | 0.00 | 57 | 1016.0 |
| 20260507020734 | 74 | 321 | 6.0 | 11.0 | 0.00 | 0.00 | 0.00 | 57 | 1016.0 |
| 20260507020229 | 75 | 301 | 6.0 | 12.0 | 0.00 | 0.00 | 0.00 | 57 | 1016.0 |
| 20260507015729 | 75 | 298 | 5.0 | 12.0 | 0.00 | 0.00 | 0.00 | 56 | 1016.0 |
| 20260507015229 | 75 | 324 | 5.0 | 11.0 | 0.00 | 0.00 | 0.00 | 56 | 1016.0 |
| 20260507014730 | 75 | 323 | 6.0 | 13.0 | 0.00 | 0.00 | 0.00 | 56 | 1015.9 |
| 20260507014226 | 76 | 312 | 6.0 | 13.0 | 0.00 | 0.00 | 0.00 | 55 | 1016.0 |
| 20260507013723 | 76 | 301 | 6.0 | 14.0 | 0.00 | 0.00 | 0.00 | 54 | 1016.0 |
| 20260507013222 | 76 | 330 | 8.0 | 14.0 | 0.00 | 0.00 | 0.00 | 54 | 1016.0 |
| 20260507013202 | 76 | 338 | 8.0 | 16.0 | 0.00 | 0.00 | 0.00 | 54 | 1016.0 |
| 20260507012220 | 76 | 329 | 7.0 | 16.0 | 0.00 | 0.00 | 0.00 | 54 | 1016.0 |
| 20260507011720 | 77 | 333 | 6.0 | 14.0 | 0.00 | 0.00 | 0.00 | 54 | 1016.0 |
| 20260507011436 | 77 | 355 | 6.0 | 12.0 | 0.00 | 0.00 | 0.00 | 54 | 1016.1 |
| 20260507010925 | 77 | 321 | 6.0 | 14.0 | 0.00 | 0.00 | 0.00 | 53 | 1016.1 |
| 20260507010807 | 77 | 0 | 6.0 | 12.0 | 0.00 | 0.00 | 0.00 | 53 | 1016.0 |
| 20260507005713 | 77 | 0 | 6.0 | 14.0 | 0.00 | 0.00 | 0.00 | 53 | 1016.0 |
| 20260507005214 | 77 | 269 | 6.0 | 11.0 | 0.00 | 0.00 | 0.00 | 52 | 1016.1 |
| 20260507004714 | 77 | 9 | 5.0 | 11.0 | 0.00 | 0.00 | 0.00 | 52 | 1016.1 |
| 20260507004214 | 77 | 331 | 5.0 | 13.0 | 0.00 | 0.00 | 0.00 | 52 | 1016.1 |
| 20260507003713 | 77 | 355 | 6.0 | 13.0 | 0.00 | 0.00 | 0.00 | 52 | 1016.2 |
| 20260507003421 | 78 | 339 | 6.0 | 13.0 | 0.00 | 0.00 | 0.00 | 51 | 1016.2 |
| 20260507003301 | 78 | 304 | 6.0 | 13.0 | 0.00 | 0.00 | 0.00 | 51 | 1016.2 |
| 20260507002159 | 78 | 334 | 6.0 | 12.0 | 0.00 | 0.00 | 0.00 | 50 | 1016.2 |
| 20260507001657 | 78 | 340 | 5.0 | 12.0 | 0.00 | 0.00 | 0.00 | 50 | 1016.2 |
| 20260507001645 | 77 | 355 | 4.0 | 10.0 | 0.00 | 0.00 | 0.00 | 51 | 1016.2 |
| 20260507000658 | 78 | 339 | 4.0 | 10.0 | 0.00 | 0.00 | 0.00 | 51 | 1016.2 |
| 20260507000158 | 78 | 28 | 4.0 | 10.0 | 0.00 | 0.00 | 0.00 | 50 | 1016.2 |
| 20260506235655 | 78 | 299 | 4.0 | 10.0 | 0.00 | 0.00 | 0.00 | 50 | 1016.3 |
| 20260506235155 | 78 | 344 | 4.0 | 9.0 | 0.00 | 0.00 | 0.00 | 51 | 1016.3 |
| 20260506234654 | 78 | 287 | 5.0 | 13.0 | 0.00 | 0.00 | 0.00 | 50 | 1016.4 |
| 20260506234419 | 78 | 326 | 4.0 | 13.0 | 0.00 | 0.00 | 0.00 | 51 | 1016.4 |
| 20260506233653 | 78 | 355 | 4.0 | 11.0 | 0.00 | 0.00 | 0.00 | 51 | 1016.4 |
| 20260506233151 | 78 | 334 | 5.0 | 13.0 | 0.00 | 0.00 | 0.00 | 51 | 1016.4 |
| 20260506232650 | 78 | 311 | 5.0 | 13.0 | 0.00 | 0.00 | 0.00 | 51 | 1016.5 |
| 20260506232147 | 78 | 300 | 6.0 | 12.0 | 0.00 | 0.00 | 0.00 | 50 | 1016.5 |
| 20260506231647 | 78 | 344 | 6.0 | 13.0 | 0.00 | 0.00 | 0.00 | 50 | 1016.5 |
| 20260506231147 | 78 | 5 | 5.0 | 13.0 | 0.00 | 0.00 | 0.00 | 50 | 1016.6 |
| 20260506230647 | 78 | 351 | 5.0 | 13.0 | 0.00 | 0.00 | 0.00 | 49 | 1016.7 |
| 20260506230147 | 79 | 309 | 6.0 | 12.0 | 0.00 | 0.00 | 0.00 | 49 | 1016.8 |
| 20260506225646 | 79 | 325 | 5.0 | 12.0 | 0.00 | 0.00 | 0.00 | 50 | 1016.8 |
| 20260506225147 | 78 | 5 | 4.0 | 11.0 | 0.00 | 0.00 | 0.00 | 50 | 1016.9 |
| 20260506224648 | 78 | 53 | 3.0 | 10.0 | 0.00 | 0.00 | 0.00 | 49 | 1016.9 |
| 20260506224146 | 79 | 308 | 3.0 | 9.0 | 0.00 | 0.00 | 0.00 | 48 | 1017.0 |
| 20260506223646 | 80 | 292 | 4.0 | 11.0 | 0.00 | 0.00 | 0.00 | 47 | 1017.1 |
| 20260506223146 | 78 | 277 | 4.0 | 11.0 | 0.00 | 0.00 | 0.00 | 49 | 1017.1 |
| 20260506222647 | 78 | 0 | 4.0 | 11.0 | 0.00 | 0.00 | 0.00 | 49 | 1017.3 |
| 20260506222404 | 78 | 348 | 4.0 | 11.0 | 0.00 | 0.00 | 0.00 | 49 | 1017.3 |
| 20260506221648 | 79 | 348 | 4.0 | 13.0 | 0.00 | 0.00 | 0.00 | 49 | 1017.3 |
| 20260506221148 | 79 | 347 | 3.0 | 13.0 | 0.00 | 0.00 | 0.00 | 48 | 1017.4 |
| 20260506220647 | 78 | 121 | 5.0 | 11.0 | 0.00 | 0.00 | 0.00 | 49 | 1017.5 |
| 20260506220146 | 78 | 19 | 5.0 | 11.0 | 0.00 | 0.00 | 0.00 | 48 | 1017.6 |
| 20260506215645 | 78 | 315 | 4.0 | 10.0 | 0.00 | 0.00 | 0.00 | 49 | 1017.7 |
| 20260506215147 | 78 | 350 | 5.0 | 11.0 | 0.00 | 0.00 | 0.00 | 49 | 1017.7 |
| 20260506214643 | 78 | 304 | 5.0 | 11.0 | 0.00 | 0.00 | 0.00 | 48 | 1017.8 |
| 20260506214143 | 78 | 31 | 4.0 | 11.0 | 0.00 | 0.00 | 0.00 | 49 | 1017.8 |
| 20260506213641 | 77 | 14 | 4.0 | 9.0 | 0.00 | 0.00 | 0.00 | 49 | 1017.9 |
| 20260506213405 | 77 | 333 | 4.0 | 10.0 | 0.00 | 0.00 | 0.00 | 49 | 1017.9 |
| 20260506212641 | 77 | 44 | 4.0 | 10.0 | 0.00 | 0.00 | 0.00 | 47 | 1018.0 |
| 20260506212139 | 78 | 319 | 3.0 | 6.0 | 0.00 | 0.00 | 0.00 | 46 | 1018.0 |
| 20260506211638 | 78 | 84 | 3.0 | 8.0 | 0.00 | 0.00 | 0.00 | 47 | 1018.0 |
| 20260506211139 | 78 | 94 | 3.0 | 8.0 | 0.00 | 0.00 | 0.00 | 47 | 1018.1 |
| 20260506210636 | 77 | 78 | 3.0 | 8.0 | 0.00 | 0.00 | 0.00 | 47 | 1018.2 |
| 20260506210137 | 77 | 344 | 2.0 | 5.0 | 0.00 | 0.00 | 0.00 | 47 | 1018.2 |
| 20260506205638 | 77 | 298 | 3.0 | 11.0 | 0.00 | 0.00 | 0.00 | 47 | 1018.2 |
| 20260506205137 | 78 | 302 | 5.0 | 11.0 | 0.00 | 0.00 | 0.00 | 46 | 1018.3 |
| 20260506204859 | 77 | 36 | 3.0 | 9.0 | 0.00 | 0.00 | 0.00 | 47 | 1018.3 |
| 20260506204136 | 77 | 13 | 3.0 | 8.0 | 0.00 | 0.00 | 0.00 | 47 | 1018.4 |
| 20260506203637 | 78 | 275 | 5.0 | 11.0 | 0.00 | 0.00 | 0.00 | 47 | 1018.4 |
| 20260506203137 | 77 | 271 | 5.0 | 11.0 | 0.00 | 0.00 | 0.00 | 47 | 1018.5 |
| 20260506202637 | 77 | 311 | 5.0 | 11.0 | 0.00 | 0.00 | 0.00 | 47 | 1018.6 |
| 20260506202135 | 77 | 21 | 3.0 | 10.0 | 0.00 | 0.00 | 0.00 | 48 | 1018.7 |
| 20260506201634 | 76 | 253 | 3.0 | 10.0 | 0.00 | 0.00 | 0.00 | 48 | 1018.7 |
| 20260506201136 | 77 | 309 | 4.0 | 11.0 | 0.00 | 0.00 | 0.00 | 48 | 1018.9 |
| 20260506200636 | 76 | 355 | 4.0 | 11.0 | 0.00 | 0.00 | 0.00 | 50 | 1019.0 |
| 20260506200134 | 75 | 339 | 4.0 | 10.0 | 0.00 | 0.00 | 0.00 | 49 | 1019.0 |
| 20260506195855 | 76 | 11 | 3.0 | 10.0 | 0.00 | 0.00 | 0.00 | 48 | 1019.0 |
| 20260506195137 | 75 | 83 | 4.0 | 9.0 | 0.00 | 0.00 | 0.00 | 50 | 1019.1 |
| 20260506194635 | 76 | 15 | 4.0 | 9.0 | 0.00 | 0.00 | 0.00 | 49 | 1019.1 |
| 20260506194135 | 76 | 59 | 3.0 | 6.0 | 0.00 | 0.00 | 0.00 | 50 | 1019.1 |
| 20260506193635 | 75 | 350 | 2.0 | 8.0 | 0.00 | 0.00 | 0.00 | 51 | 1019.1 |
| 20260506193356 | 76 | 92 | 2.0 | 8.0 | 0.00 | 0.00 | 0.00 | 49 | 1019.2 |
| 20260506192855 | 76 | 219 | 3.0 | 8.0 | 0.00 | 0.00 | 0.00 | 51 | 1019.2 |
| 20260506192135 | 75 | 249 | 4.0 | 8.0 | 0.00 | 0.00 | 0.00 | 51 | 1019.2 |
| 20260506191632 | 75 | 345 | 3.0 | 8.0 | 0.00 | 0.00 | 0.00 | 52 | 1019.3 |
| 20260506191132 | 74 | 17 | 3.0 | 8.0 | 0.00 | 0.00 | 0.00 | 51 | 1019.3 |
| 20260506190633 | 73 | 42 | 3.0 | 8.0 | 0.00 | 0.00 | 0.00 | 50 | 1019.4 |
| 20260506190133 | 73 | 73 | 3.0 | 7.0 | 0.00 | 0.00 | 0.00 | 52 | 1019.4 |
| 20260506185632 | 73 | 62 | 3.0 | 8.0 | 0.00 | 0.00 | 0.00 | 53 | 1019.4 |
| 20260506185616 | 74 | 113 | 2.0 | 8.0 | 0.00 | 0.00 | 0.00 | 51 | 1019.4 |
| 20260506184631 | 74 | 355 | 3.0 | 7.0 | 0.00 | 0.00 | 0.00 | 52 | 1019.5 |
| 20260506184130 | 74 | 103 | 3.0 | 8.0 | 0.00 | 0.00 | 0.00 | 51 | 1019.6 |